Home   Weather   Setúbal   Past weeks

Flag for Portugal Past Weather in Setúbal, Portugal — Yesterday and Last 2 Weeks

Now
50 °F

Sunny.


Feels Like: 46 °F
Forecast: N/A
Wind: 9 mph from Northwest

Location: Lisbon Portela Airport

Current Time: Jan 19, 2017 at 5:31:04 pm

Latest Report: Jan 19, 2017 at 4:30 pm


Visibility: 10 mi

Pressure: 30.07 "Hg

Humidity: 35%

Dew Point: 23 °F

Location of SetúbalLocation

Past Weather in Setúbal — Graph

°F

Setúbal Temperature Yesterday

Maximum temperature yesterday: 52 °F (at 12:00 am)
Minimum temperature yesterday: 37 °F (at 9:30 pm)
Average temperature yesterday: 43 °F

High & Low Weather Summary for the Past Weeks

 TemperatureHumidityPressure
High64 °F (Jan 11, 12:30 pm)100% (Jan 4, 4:00 pm)30.48 "Hg (Jan 4, 4:00 pm)
Low36 °F (Jan 19, 2:30 am)29% (Jan 18, 1:30 pm)30.07 "Hg (Jan 19, 3:00 pm)
Average50 °F76%30.29 "Hg
* Reported Jan 4 4:00 pm — Jan 19 4:00 pm, Setúbal, Weather by CustomWeather, © 2017

Note: Actual official high and low records may vary slightly from our data, if they occured in-between our weather recording intervals... More about our weather records

Advertising

Setúbal Weather History for the Previous 24 Hours

Scroll right to see more
 ConditionsComfort  
Time TempWeatherWind HumidityBarometerVisibility
4:00 pm
Thu, Jan 19
50 °FSunny.3 mph40%30.07 "Hg10 mi
3:30 pm50 °FPassing clouds.3 mph43%30.07 "HgN/A
3:00 pm48 °FPassing clouds.6 mph46%30.07 "HgN/A
2:30 pm48 °FPassing clouds.7 mph46%30.09 "HgN/A
2:00 pm48 °FPassing clouds.7 mph46%30.09 "HgN/A
1:30 pm46 °FPassing clouds.9 mph46%30.09 "HgN/A
1:00 pm46 °FPassing clouds.7 mph43%30.12 "HgN/A
12:30 pm45 °FSunny.12 mph42%30.12 "Hg10 mi
12:00 pm45 °FSunny.13 mph42%30.12 "Hg10 mi
11:30 am45 °FPassing clouds.10 mph37%30.15 "HgN/A
11:00 am43 °FPassing clouds.10 mph36%30.15 "HgN/A
10:30 am41 °FPassing clouds.12 mph42%30.15 "HgN/A
10:00 am39 °FSunny.13 mph48%30.15 "Hg10 mi
9:30 am39 °FSunny.10 mph52%30.15 "Hg10 mi
8:30 am36 °FSunny.7 mph56%30.15 "Hg10 mi
8:00 am36 °FSunny.9 mph56%30.12 "Hg10 mi
7:30 am36 °FClear.7 mph56%30.12 "Hg10 mi
7:00 am37 °FClear.6 mph56%30.12 "Hg10 mi
6:30 am36 °FClear.8 mph56%30.12 "Hg10 mi
6:00 am36 °FClear.6 mph56%30.12 "Hg10 mi
5:30 am36 °FClear.7 mph56%30.12 "Hg10 mi
5:00 am36 °FClear.8 mph56%30.12 "Hg10 mi
4:30 am36 °FClear.6 mph52%30.12 "Hg10 mi
4:00 am36 °FClear.6 mph52%30.12 "Hg10 mi
3:30 am36 °FClear.8 mph52%30.12 "Hg10 mi
3:00 am37 °FClear.8 mph48%30.12 "Hg10 mi
2:30 am36 °FClear.7 mph52%30.12 "Hg10 mi
2:00 am37 °FClear.6 mph48%30.12 "Hg10 mi
1:30 am37 °FClear.6 mph48%30.12 "Hg10 mi
1:00 am37 °FClear.5 mph48%30.12 "Hg10 mi
12:30 am37 °FClear.9 mph48%30.12 "Hg10 mi
12:00 am37 °FClear.8 mph48%30.12 "Hg10 mi
11:30 pm
Wed, Jan 18
39 °FClear.6 mph42%30.12 "Hg10 mi
11:00 pm37 °FClear.7 mph45%30.12 "Hg10 mi
10:30 pm39 °FClear.7 mph45%30.12 "Hg10 mi
10:00 pm37 °FClear.7 mph48%30.12 "Hg10 mi
9:30 pm37 °FClear.7 mph48%30.12 "Hg10 mi
9:00 pm39 °FClear.7 mph45%30.12 "Hg10 mi
8:30 pm39 °FClear.7 mph45%30.12 "Hg10 mi
8:00 pm39 °FClear.7 mph45%30.09 "Hg10 mi
7:30 pm39 °FClear.7 mph45%30.09 "Hg10 mi
7:00 pm39 °FClear.7 mph45%30.09 "Hg10 mi
6:30 pm41 °FClear.7 mph42%30.09 "Hg10 mi
6:00 pm43 °FClear.9 mph36%30.09 "Hg10 mi
5:30 pm45 °FPassing clouds.12 mph34%30.09 "HgN/A
5:00 pm46 °FSunny.12 mph29%30.09 "Hg10 mi
Weather by CustomWeather, © 2017

See weather overviewHow to use our weather pages